Location: Newark
(30.1000°N, 109.4667°E)
Time: 01:07:52
(UTC+00:00)

A-11 Canister half - Pass Details

Date: 24 February 2020
Orbit: 1517 x 1683 km, 47.2° (Epoch: 27 March)

Event Time Altitude Azimuth Distance (km) Brightness Sun altitude
Rises 13:20:55 0° 309° (NW) 4,822 12.4 -36.1°
Reaches altitude 10° 13:24:17 10° 316° (NW) 3,811 11.6 -36.8°
Enters shadow 13:32:07 45° 6° (N) 2,037 9.5 -38.5°
